sat.trackr.live / text

‹ back to catalog

CORIOLIS

NORAD 27640 · 2003-001A

PAYLOAD ACTIVE UNKNOWN

§ Identity

Operator
Country
US
Launch date
2003-01-06
Launch site
AFWTR
Launch vehicle
Mass (kg)
RCS (m²)
5.08

Purposes: science

External: N2YO · Heavens-Above · Gunter

§ Orbital elements

Epoch: 2026-09-19T23:19:21.969984Z

Period
101.41 min
Inclination
98.7172°
Eccentricity
0.0013037
Mean motion
14.19967039 rev/d
Perigee alt
816.1 km
Apogee alt
834.9 km
Semi-major
7,203.6 km
B*
3.9631e-5
RAAN
268.4277°
Arg perigee
302.7517°
Mean anomaly
57.2402°
Rev number
22,767

§ Raw data

CORIOLIS1 27640U 03001A   26262.97178206  .00000040  00000+0  39631-4 0  99902 27640  98.7172 268.4277 0013037 302.7517  57.2402 14.19967039227673

JSON: /api/v1/satellites/27640 · /tle

For live sub-satellite position, see the globe view (requires WebGL).

§ Visibility from observer

Set your observer location to see the next 7 days of passes ≥ 10°. The values pass through the URL so the page stays shareable.

No JS? Fill the form by hand. The geolocation button needs JavaScript.

§ Radio — SatNOGS DB

ModeDescriptionDownlinkUplink
FM Mode S 1 2.213 GHz
FM Mode S 2 2.223 GHz
QPSK Mode X 8.075 GHz
BPSK WindSat 2.222 GHz

4 transmitters · refreshed weekly from db.satnogs.org